Location: Coupvray
(48.8929°N, 2.7967°E)
Time: 21:24:02
(UTC+00:00)

Cosmos 1241 Rocket - Pass Details

Date: 29 October 2020
Orbit: 929 x 1018 km, 65.8° (Epoch: 30 November)

Event Time Altitude Azimuth Distance (km) Brightness Sun altitude
Rises 19:40:33 0° 288° (WNW) 3,687 8.7 -31.2°
Reaches altitude 10° 19:44:00 10° 306° (NW) 2,757 7.6 -31.8°
Maximum altitude 19:48:26 19° 349° (N) 2,200 6.6 -32.5°
Enters shadow 19:50:44 16° 15° (NNE) 2,376 6.5 -32.8°
